Location: ????????
(48.4751°N, 37.6926°E)
Time: 03:10:12
(UTC+00:00)

USA 229 DEB - Pass Details

Date: 20 January 2021
Orbit: 965 x 1247 km, 63.4° (Epoch: 23 February)

Event Time Altitude Azimuth Distance (km) Brightness Sun altitude
Rises 16:01:48 0° 316° (NW) 3,903 7.1 -18.3°
Reaches altitude 10° 16:04:32 10° 322° (NW) 2,986 6.4 -18.7°
Maximum altitude 16:11:26 47° 36° (NE) 1,505 4.2 -19.9°
Enters shadow 16:14:22 33° 86° (E) 1,894 4.4 -20.3°
